Location: Martyr Worthy
(51.0833°N, 1.2667°W)
Time: 23:05:45
(UTC+00:00)

Daily predictions for brighter satellites

Satellite Brightness Start Highest point End
(mag) Time Altitude Azimuth Time Altitude Azimuth Time Altitude Azimuth
Cosmos 2016 Rocket 4.4 18:31:34 10° SSW 18:37:52 75° WNW 18:44:07 10° N
CREW DRAGON DEMO-1 DEB 2.8 18:41:29 10° W 18:44:32 86° N 18:47:35 10° E
USA 102 3.8 18:40:20 10° SE 18:46:48 69° ENE 18:49:24 10° NNW
USA 229 DEB 4.4 18:42:43 10° WSW 18:49:11 57° NW 18:56:07 10° NE
USA 229 4.4 18:42:48 10° WSW 18:49:17 58° NW 18:56:13 10° NE
Cosmos 1782 Rocket 3.7 18:45:21 10° S 18:49:38 52° E 18:53:59 10° NNE
Cosmos 1975 2.8 18:46:38 10° S 18:50:41 65° E 18:54:44 10° NNE
NOSS 3-2 (C) 4.5 18:44:04 10° NW 18:50:51 46° NNE 18:58:36 10° ESE
Cosmos 2233 Rocket 4.0 18:44:39 10° S 18:50:52 79° E 18:57:05 10° NNE
Cosmos 1025 Rocket 4.0 18:47:03 10° N 18:50:54 29° ENE 18:54:45 10° SE
CZ-4 R/B 2.3 18:47:29 10° S 18:51:38 57° W 18:55:49 10° NNW
Cosmos 1908 Rocket 3.6 18:47:28 10° S 18:51:50 88° WNW 18:56:15 10° N
USA 186 2.8 18:49:48 10° SE 18:52:29 26° ENE 18:55:16 10° N
Meteor 2-11 Rocket 4.5 18:47:23 10° S 18:53:28 69° E 18:59:36 10° NNE
Cosmos 2082 Rocket 4.3 18:57:24 10° N 18:59:46 13° NNE 19:02:09 10° NE
OPS 6432 4.5 18:57:26 10° NW 19:00:29 76° SW 19:04:13 10° SE
NOSS 3-1 (A) 4.1 18:55:44 10° WSW 19:01:21 58° NW 19:08:02 10° NE
Cosmos 1544 3.6 18:57:51 10° SSW 19:01:30 65° WNW 19:05:09 10° N
Cosmos 1937 Rocket 3.6 18:56:28 10° S 19:01:35 57° ESE 19:06:42 10° NNE
OBJECT-B 2.6 19:01:22 12° E 19:03:02 16° ENE 19:05:10 10° NNE
MOS 1 Rocket 3.4 18:58:50 10° NNE 19:03:15 47° E 19:07:26 10° S
Cosmos 1842 3.7 19:02:04 10° NNW 19:05:54 64° W 19:09:44 10° S
FREGAT/IRIS 3.6 19:05:32 14° ESE 19:07:01 23° ENE 19:09:10 10° NNE
Cosmos 1674 4.2 19:04:43 10° NNE 19:07:39 20° ENE 19:09:42 14° ESE
Cosmos 2297 Rocket 4.4 19:04:18 10° W 19:08:58 26° NW 19:13:41 10° NNE
Cosmos 1975 Rocket 3.1 19:06:33 10° NNW 19:10:54 82° W 19:15:13 10° S
NOSS 8 (H) 4.2 19:10:12 10° SSW 19:13:15 55° SE 19:16:14 10° NE
NOSS 8 (E) 4.1 19:10:11 10° SW 19:13:19 86° NW 19:16:23 10° NE
COSMO-SKYMED 1 4.4 19:09:23 10° N 19:13:24 36° WNW 19:17:22 10° SW
In-Cosmos 22 4.2 19:09:36 10° N 19:14:48 54° ENE 19:20:01 10° SSE
NOSS 2-2 (E) 3.6 19:13:50 10° SSW 19:17:08 38° ESE 19:20:51 10° NE
Cosmos 1707 2.6 19:16:35 10° N 19:20:26 72° ENE 19:24:15 10° SSE
Resurs 01 Rocket 3.0 19:19:17 16° E 19:21:31 23° ENE 19:25:00 10° N
H-2A R/B 2.3 19:16:49 10° S 19:21:45 69° WSW 19:26:50 10° NNW
ARGOS 3.2 19:17:34 10° SSE 19:22:57 86° WSW 19:28:22 10° NNW
CZ-2C R/B 3.1 19:18:28 10° NNE 19:23:40 41° E 19:28:55 10° SSE
SJ-6B 2.9 19:21:47 11° SE 19:25:12 51° ENE 19:28:52 10° N
NOSS 2-2 (D) 3.6 19:22:20 10° SSW 19:25:35 36° ESE 19:29:13 10° NE
Sich 1 Rocket 3.5 19:23:20 10° S 19:27:49 77° E 19:32:23 10° NNE
Iridium 4 Rocket 4.5 19:23:54 10° SSW 19:28:44 52° W 19:34:04 10° N
MOS 1 4.3 19:24:12 10° SSE 19:29:49 66° ENE 19:35:30 10° NNW
Cosmos 1048 Rocket 4.2 19:24:46 10° NNW 19:30:00 57° ENE 19:34:10 16° SE
ATLAS CENTAUR R/B 3.8 19:28:54 10° WNW 19:31:39 18° NNW 19:34:19 10° NNE
CENTAUR R/B 3.3 19:24:13 10° NW 19:31:54 62° NE 19:38:33 18° ESE
ATLAS 3B R/B 3.6 19:31:36 10° NW 19:37:47 36° NNE 19:42:49 15° E
ARIANE 5 R/B 4.1 19:37:44 18° E 19:38:50 20° ENE 19:42:02 10° NNE
SL-08 RB Rocket 3.8 19:34:43 10° SSE 19:39:19 82° WSW 19:43:55 10° NNW
Cosmos 2263 Rocket 2.5 19:33:50 10° SW 19:39:23 72° WNW 19:45:01 10° NNE
USA 238 DEB 3.8 19:32:47 10° NW 19:39:58 80° NE 19:45:38 19° SE
USA 238 3.9 19:32:54 10° NW 19:40:05 80° NE 19:45:43 19° SE
ISS -2.5 19:38:28 10° SSW 19:41:13 25° SSE 19:41:13 25° SSE
Abrixas rocket 2.2 19:39:13 10° WSW 19:41:58 46° S 19:42:32 39° SE
SJ 16-02 3.6 19:39:28 10° WSW 19:43:16 28° NW 19:47:05 10° N
Cosmos 1513 Rocket 4.4 19:37:15 10° S 19:43:32 80° E 19:49:44 10° NNE
Cosmos 1844 Rocket 3.1 19:41:43 10° S 19:46:44 36° ESE 19:51:47 10° NE
Okean 2 Rocket 3.0 19:43:27 10° S 19:47:57 79° E 19:52:28 10° NNE
Lacrosse 5 rocket 2.5 19:47:17 10° W 19:51:26 44° NNW 19:55:13 13° ENE
Cosmos 1464 Rocket 3.9 19:45:33 10° S 19:51:40 87° E 19:57:54 10° N
Okean 1 Rocket 3.8 19:51:22 29° ESE 19:52:25 33° E 19:56:26 10° NNE
Ariane Rocket 3.2 19:50:59 10° S 19:56:02 71° WSW 20:01:08 10° NNW
Cosmos 1092 Rocket 4.1 19:50:06 10° N 19:56:10 57° ENE 20:00:15 21° SSE
Meteor 1-12 Rocket 4.3 19:53:20 10° SSW 19:59:16 88° WNW 20:05:08 10° NNE
Meteor 1-15 Rocket 4.3 19:54:01 10° S 19:59:27 53° E 20:05:00 10° NNE
Resurs 1-3 3.6 19:57:58 27° SSE 20:00:16 67° ENE 20:04:39 10° N
Cosmos 1300 Rocket 3.6 19:56:34 10° SSW 20:00:58 80° WNW 20:05:25 10° N
Cosmos 494 Rocket 4.0 19:57:47 10° NNW 20:03:03 68° ENE 20:05:36 31° SE
Cosmos 2026 Rocket 4.2 19:57:28 10° N 20:03:40 51° ENE 20:06:56 27° SE
Meteor 2-13 Rocket 4.4 19:58:46 10° N 20:04:56 68° ENE 20:09:01 22° SSE
CZ-2C R/B 4.1 20:00:50 10° NNE 20:05:01 38° E 20:05:30 37° ESE
Cosmos 2298 Rocket 3.9 20:00:08 10° S 20:05:25 66° ESE 20:10:43 10° NNE
Cosmos 1833 Rocket 3.8 20:00:48 10° NNW 20:05:45 30° NE 20:07:47 24° ENE
SPOT 3 Rocket 3.5 20:03:38 25° SSE 20:06:39 72° ENE 20:11:48 10° NNW
NOSS 3-2 (A) 4.1 20:00:52 10° NW 20:08:14 76° SW 20:13:56 23° SSE
MetOp-A 4.3 20:03:47 11° S 20:09:00 72° WSW 20:14:22 10° NNW
NOSS 2-2 (C) 3.1 20:06:30 10° SW 20:10:03 89° NW 20:14:10 10° NE
Cosmos 1536 Rocket 4.0 20:10:34 10° NNW 20:14:56 61° W 20:18:27 16° S
Cosmos 1626 2.6 20:14:39 10° N 20:17:51 42° NE 20:17:51 42° NE
Terra 3.6 20:19:13 17° NE 20:19:15 17° NE 20:22:14 10° NNE
CREW DRAGON DEMO-1 DEB 3.1 20:17:12 10° W 20:19:51 65° W 20:19:51 65° W
Cosmos 1892 Rocket 4.2 20:16:15 10° N 20:20:06 36° ENE 20:20:06 36° ENE
USA 186 4.2 20:20:43 10° SW 20:23:12 22° W 20:25:46 10° NW
DMSP B5D2-2 4.2 20:20:47 10° NNE 20:26:05 78° WNW 20:31:22 10° SSW
USA 234 3.3 20:20:11 10° ENE 20:26:34 53° SE 20:32:56 10° SW
Meteor 2-5 Rocket 3.6 20:22:26 10° NNW 20:28:05 82° ENE 20:30:35 35° SSE
Cosmos 2151 Rocket 4.2 20:24:51 10° SSW 20:29:14 58° WNW 20:33:42 10° N
OBJECT-B 2.0 20:34:34 35° SW 20:35:08 38° W 20:38:13 10° NNW
Cosmos 2150 Rocket 4.1 20:30:10 10° SSW 20:35:33 81° WNW 20:41:04 10° NNE
Cosmos 1805 3.1 20:35:56 88° ESE 20:35:57 88° E 20:39:54 10° N
SPOT 5 3.9 20:40:10 33° ENE 20:40:15 33° ENE 20:44:56 10° N
NOSS 3-2 (C) 4.1 20:35:00 10° NW 20:42:23 74° SW 20:46:12 36° SSE
Cosmos 1674 3.8 20:39:43 10° NNW 20:43:21 41° W 20:44:32 31° SW
Meteor 1-22 Rocket 4.3 20:43:03 48° SSE 20:44:31 63° E 20:50:29 10° NNE
Cosmos 2082 Rocket 3.1 20:40:39 10° NNW 20:45:43 33° NE 20:46:33 32° ENE
Cosmos 1125 Rocket 3.4 20:40:58 10° SSW 20:46:17 87° ESE 20:51:39 10° NNE
Okean 1-7 Rocket 4.1 20:42:47 10° N 20:46:41 47° NE 20:46:41 47° NE
Cosmos 1733 4.0 20:52:18 44° N 20:52:18 44° N 20:55:00 10° N
SL-14 R/B 3.6 20:48:17 10° N 20:51:36 63° NNW 20:51:36 63° NNW
COSMOS 2406 3.1 20:47:55 10° NNW 20:53:36 68° ENE 20:54:20 61° E
Meteor 1-24 Rocket 3.7 20:49:27 10° NNW 20:54:57 81° W 20:56:22 52° S
CRYOSAT 2 4.2 20:52:03 10° N 20:57:00 80° E 20:57:03 80° ESE
ERS-1 Rocket 3.4 20:57:24 45° NE 20:57:24 45° NE 21:01:52 10° N
Resurs 01 Rocket 2.2 20:56:51 45° SW 20:57:42 53° W 21:02:05 10° NNW
Cosmos 2098 Rocket 4.2 20:55:47 10° N 21:02:59 59° ENE 21:03:50 55° ESE
Lacrosse 4 Rocket 2.9 20:59:24 10° NNW 21:02:11 27° NNE 21:02:11 27° NNE
CZ-2C R/B 4.1 20:58:53 10° N 21:03:56 39° WNW 21:09:03 10° SW
Landsat 7 3.7 21:04:41 87° WNW 21:04:41 87° WNW 21:09:26 10° NNW
Cosmos 2266 Rocket 4.2 20:59:46 10° N 21:05:35 48° ENE 21:05:35 48° ENE
Exosat Rocket 3.6 21:01:26 10° SSW 21:06:53 74° WNW 21:11:54 10° NNE
Cosmos 1766 4.2 21:09:00 48° NW 21:09:00 48° NW 21:12:25 10° N
ATLAS CENTAUR R/B 4.1 21:11:16 10° NNW 21:11:57 10° N 21:12:37 10° N
Cosmos 1655 Rocket 3.9 21:05:50 10° N 21:12:05 67° ENE 21:12:30 65° E
ATLAS 2AS CENTAUR R/B 3.0 21:04:31 10° SSW 21:12:10 54° ESE 21:19:47 10° NE
IGS 5A 4.1 21:13:35 54° NW 21:13:35 54° NW 21:16:58 10° NNW
SPOT 1/Viking Rocket 3.4 21:14:24 89° WNW 21:14:24 89° WNW 21:19:36 10° NNW
ARIANE 5 R/B 3.1 21:15:16 56° W 21:15:16 56° W 21:19:15 10° NNW
Cosmos 1844 3.9 21:12:57 10° SW 21:18:38 68° WNW 21:24:17 10° NNE
Cosmos 2278 Rocket 4.1 21:22:33 17° NE 21:22:33 17° NE 21:23:54 10° NE
Cosmos 1269 Rocket 4.5 21:16:21 10° NNW 21:21:31 53° WSW 21:21:56 52° SW
Cosmos 1634 Rocket 4.3 21:19:01 29° SSW 21:22:16 64° WNW 21:28:27 10° N
CENTAUR R/B 3.6 21:15:03 10° NW 21:22:48 53° WSW 21:25:44 39° S
Cosmos 2285 Rocket 4.4 21:21:35 10° SW 21:27:50 62° WNW 21:34:10 10° NNE
Spot 2 Rocket 3.8 21:28:19 62° W 21:28:19 62° W 21:33:13 10° NNW
ATLAS 3B R/B 2.5 21:22:26 10° NW 21:29:19 86° NE 21:30:03 73° ESE
Cosmos 1844 Rocket 3.5 21:25:08 10° SW 21:30:30 48° NW 21:35:57 10° NNE
Lacrosse 5 rocket 2.7 21:27:07 10° WNW 21:30:50 39° N 21:30:50 39° N
Cosmos 909 Rocket 4.0 21:40:19 10° NW 21:46:53 81° NNE 21:46:53 81° NNE
Cosmos 1833 Rocket 3.0 21:44:31 10° NW 21:49:28 61° WNW 21:49:28 61° WNW
Cosmos 2180 Rocket 4.5 21:50:40 76° W 21:50:47 77° W 21:57:09 10° N
Cosmos 2251 Rocket 4.1 21:49:04 10° NNW 21:53:17 56° NNW 21:53:17 56° NNW
Terra 3.0 21:58:07 40° NNW 21:58:07 40° NNW 22:01:11 10° NNW
USA 234 3.3 22:06:56 36° NE 22:09:48 73° NNW 22:16:20 10° WSW
SPOT 5 4.2 22:19:24 38° WNW 22:19:24 38° WNW 22:23:14 10° NNW
Cosmos 2082 Rocket 3.3 22:24:37 10° NW 22:28:23 40° WNW 22:28:23 40° WNW
NOSS 3-4 (A) 4.2 22:41:29 46° NNE 22:41:29 46° NNE 22:46:23 10° NE
NOSS 3-4 (C) 4.3 22:41:39 46° NNE 22:41:39 46° NNE 22:46:29 10° NE
Lacrosse 4 Rocket 4.3 22:37:57 10° NW 22:38:29 13° NW 22:38:29 13° NW
CZ-4C R/B 4.4 23:02:00 18° NE 23:02:00 18° NE 23:03:30 10° NE
Cosmos 2278 Rocket 3.6 23:04:22 35° N 23:04:22 35° N 23:08:10 10° NNE
ATLAS 2AS CENTAUR R/B 3.4 22:59:08 29° WSW 23:03:18 58° NW 23:10:59 10° NE
ATLAS 3B R/B 4.3 23:13:48 10° WNW 23:17:17 23° W 23:17:17 23° W
NOSS 3-1 (C) 4.4 23:21:39 10° NW 23:28:32 53° NE 23:28:49 53° NE
USA 234 4.2 23:46:09 10° ENE 23:54:28 40° NW 23:58:48 10° WNW
